Location: Unspecified
(0.0000°N, 0.0000°E)
Time: 23:47:39
(UTC+00:00)

DMSP 5D-3 F17 - Visible Passes

Search period start: 20 May 2019 00:00
Search period end: 30 May 2019 00:00
Orbit: 839 x 852 km, 98.8° (Epoch: 20 May)

Date Brightness Start Highest point End Pass type
(mag) Time Alt. Az. Time Alt. Az. Time Alt. Az.
20 May 5.2 18:30:18 10° SSE 18:35:49 85° ENE 18:41:20 10° N visible
21 May 5.3 18:17:09 10° SSE 18:22:34 60° ENE 18:27:58 10° N visible
22 May 8.1 05:23:32 10° E 05:25:46 13° ESE 05:28:01 10° SE visible
22 May 7.9 19:47:07 10° SW 19:49:35 13° WSW 19:52:03 10° WNW visible
23 May 7.6 19:32:33 10° SSW 19:36:20 19° WSW 19:40:09 10° WNW visible
24 May 7.2 19:18:32 10° SSW 19:23:06 27° WSW 19:27:41 10° NW visible
25 May 6.6 19:04:46 10° S 19:09:51 39° WSW 19:14:55 10° NW visible
26 May 5.9 18:51:13 10° S 18:56:35 55° WSW 19:01:57 10° NNW visible
27 May 5.4 18:37:49 10° S 18:43:20 79° WSW 18:48:50 10° NNW visible
28 May 5.2 18:24:34 10° SSE 18:30:05 74° ENE 18:35:34 10° N visible
29 May 7.9 05:30:07 10° ENE 05:33:16 16° ESE 05:36:25 10° SE visible
29 May 8.1 19:56:19 10° WSW 19:57:05 10° WSW 19:57:51 10° W visible
